sat.trackr.live / text

‹ back to catalog

STARLINK-30604

NORAD 58075 · 2023-160A

PAYLOAD ACTIVE UNKNOWN

§ Identity

Operator
Country
US
Launch date
2023-10-18
Launch site
AFETR
Launch vehicle
Mass (kg)
RCS (m²)

Purposes: comms

External: N2YO · Heavens-Above · Gunter

§ Orbital elements

Epoch: 2026-05-25T00:48:58.471776Z

Period
94.27 min
Inclination
43.0030°
Eccentricity
0.0001747
Mean motion
15.27577707 rev/d
Perigee alt
481.9 km
Apogee alt
484.3 km
Semi-major
6,861.2 km
B*
3.0316e-4
RAAN
6.5726°
Arg perigee
274.1687°
Mean anomaly
85.8965°
Rev number
14,462

§ Raw data

STARLINK-306041 58075U 23160A   26145.03401009  .00008089  00000+0  30316-3 0  99922 58075  43.0030   6.5726 0001747 274.1687  85.8965 15.27577707144623

JSON: /api/v1/satellites/58075 · /tle

For live sub-satellite position, see the globe view (requires WebGL).

§ Visibility from observer

Set your observer location to see the next 7 days of passes ≥ 10°. The values pass through the URL so the page stays shareable.

No JS? Fill the form by hand. The geolocation button needs JavaScript.